Regional Weather Roundup
Issued by NWS Charleston, SC

Current Version | Previous Version | Graphics & Text | Print | Product List | Glossary On
Versions: 1 2 3 4 5 6 7 8 9 10 11 12 13 14 15 16 17 18 19 20 21 22 23 24 25 26 27 28 29 30 31 32 33 34 35 36 37 38 39 40 41 42 43 44 45 46 47 48 49 50
000
ASUS42 KCHS 181312
RWRCHS

REGIONAL WEATHER ROUNDUP
NATIONAL WEATHER SERVICE CHARLESTON SC
800 AM EST WED JAN 18 2017

NOTE: "FAIR" INDICATES FEW OR NO CLOUDS BELOW 12,000 FEET WITH NO
SIGNIFICANT WEATHER AND/OR OBSTRUCTIONS TO VISIBILITY.

NOT ALL STATIONS ARE QUALITY CONTROLLED. USE DATA WITH CAUTION...
ESPECIALLY DEWPOINT OBSERVATIONS.

SCZ027-030-031-034>040-042>050-181400-
...SOUTHEAST SOUTH CAROLINA...

CITY           SKY/WX    TMP DP  RH WIND       PRES   REMARKS
N CHARLESTON   PTCLDY    60  56  86 SW5       30.09F
WATERFRONT PRK   N/A     62  59  90 VRB2      30.09S
MOUNT PLEASANT FAIR      61  57  88 SW6       30.10S
JOHNS ISLAND   FAIR      61  59  94 CALM      30.10S
PINOPOLIS        N/A     61  59  94 SW8       29.98S
MONCKS CORNER  FAIR      59  57  94 SW6       30.08F
SUMMERVILLE    FAIR     N/A N/A N/A S3        30.09F
BEAUFORT MCAS  PTCLDY    58  56  93 SW7       30.11S
BEAUFORT ARPT  FAIR      59  55  88 SW7       30.11S
HILTON HEAD IS CLEAR     64  59  82 SW6       30.12S
WALTERBORO     SUNNY     61 N/A N/A SW5       30.10S
ALLENDALE      FAIR      59  57  94 CALM      30.09S

...SOUTHERN MIDLANDS AND PEE DEE...

CITY           SKY/WX    TMP DP  RH WIND       PRES   REMARKS
GEORGETOWN     FAIR      61  57  88 SW8       30.08S
KINGSTREE      FAIR      61  55  82 SW6       30.05S
ORANGEBURG     CLEAR     61  59  93 SW14      30.07S
BARNWELL       FAIR      63  61  94 SW7       30.09S
AIKEN          CLOUDY    59  59 100 SW6       30.12R
MANNING        FAIR      61  55  82 SW5       30.06S
COLUMBIA       PTCLDY    63  58  83 W9        30.05R
SUMTER         PTCLDY    63  58  86 SW12      30.02S
FLORENCE       PTCLDY    64  59  83 W15       30.03S
MYRTLE BEACH   MOCLDY    64  57  77 SW12      30.06F
N MYRTLE BEACH MOCLDY    64  59  83 W9        30.03F

$$

GAZ063-065-086>088-099>101-113>116-118-119-134>141-150-181400-
...SOUTHEAST GEORGIA...

CITY           SKY/WX    TMP DP  RH WIND       PRES   REMARKS
SAVANNAH ARPT  PTCLDY    58  55  90 SW3       30.13
HUNTER AAF     CLEAR     58  58 100 W3        30.11R
FORT STEWART   CLEAR     58  57  94 SW3       30.11S
STATESBORO     PTCLDY    60  60 100 CALM      30.12S
SYLVANIA       SUNNY    N/A N/A N/A CALM      30.12S
CLAXTON        FAIR     N/A N/A N/A CALM      30.13S

...CSRA...CENTRAL AND FAR SOUTHEAST GEORGIA...

CITY           SKY/WX    TMP DP  RH WIND       PRES   REMARKS
THOMSON        PTCLDY    65  63  95 W7        30.14S
AUGUSTA-BUSH   CLOUDY    63  59  87 W6        30.10R
AUGUSTA-DANIEL CLOUDY    65  59  81 W8        30.11R
SWAINSBORO     CLOUDY    63  61  94 MISG      30.14R
VIDALIA        FOG       63  63 100 W7        30.13S VSB 3/4
EASTMAN        CLOUDY    64  64 100 W3        30.16S
HAZLEHURST     CLOUDY    64  64 100 CALM      30.13S FOG
ALMA           FOG       59  59 100 SW5       30.14S VSB 3/4
WAYCROSS       FOG       62  62 100 SW5       30.15F VSB<1/4
JESUP          FAIR      59  57  94 SW3       30.14S FOG
BAXLEY         FAIR      61  61 100 CALM      30.13F FOG
BRUNSWICK      CLEAR     61  61 100 SW7       30.16S
SAINT SIMONS   CLEAR     59  58  96 SW6       30.15S

$$

SCZ027-028-034-036>038-045-046-048>050-GAZ119-141-181400-
...LAKE AND SUPPLEMENTAL COASTAL OBSERVATIONS...

STATION/POSITION TIME  TEMP    WIND        PRES    WAVE   SWELL
                       AIR SEA DIR/SP/G            HT/PER HT/PER/DIR
                 (UTC) (F)     (DEG/KT/KT) (MB)    (FT/S) (FT/S/D)
WINYAH BAY       NOT AVBL
LAKE MURRAY      1220   64     250/  9/ 14 1016.9
ACE BASIN NERRS  1145   59     220/  1     1019.0
FORT PULASKI     1242   59 56  250/  4/  6 1020.3R
SAPELO ISLAND    1200   59     200/  5     1021.0

$$

ANZ835-935-AMZ111-154-330-350-352-354-370-450-454-472-181400-
...C-MAN AND BUOY OBSERVATIONS...

STATION/POSITION TIME  TEMP    WIND        PRES    WAVE   SWELL
                       AIR SEA DIR/SP/G            HT/PER HT/PER/DIR
                 (UTC) (F)     (DEG/KT/KT) (MB)    (FT/S) (FT/S/D)
BUOY 41004       1150   70 71  250/ 19/ 23 1018.7    4/ 5   2/120/10
BUOY 41008       1150   61 59  210/ 10/ 12 1020.4    2/ 8   2/ 80/ 8
FOLLY BEACH CMAN 1200   57     220/  7/  8 1019.8R
CAPERS NEARSHORE 1208   56 54  230/ 12/ 16 1018.8F
FRIPP NEARSHORE  1208   58 56  250/  8/ 10 1019.4S


STATION/POSITION TIME  TEMP    WIND        PRES    WAVE   SWELL
                       AIR SEA DIR/SP/G            HT/PER HT/PER/DIR
                 (UTC) (F)     (DEG/KT/KT) (MB)    (FT/S) (FT/S/D)
5E ST. MARYS GA  1230      61                N/A     2/ 9
FRYING PAN BUOY  1250   69 71  240/ 23/ 27 1017.6F   6/ 6
BUOY 41025       1150   69 71  250/ 25/ 29 1013.9    8/ 6   2/ 80/13
CAPE LOOKOUT NC  1200   62     230/ 13/ 19 1014.7F
BUOY 41002       1150   71 72  250/ 16/ 19 1019.2    5/ 5   2/140/ 8
BUOY 41010       NOT AVBL
ST AUGUSTINE FL  1200   61 62  250/  6/  6 1022.4R


$$




USA.gov is the U.S. government's official web portal to all federal, state and local government web resources and services.